KC5DDG Weather Reports


time (UTC)temp
F
wind
direction
speed
knots
gust
knots
rain 1hr
in
rain 24hr
in
rain mn
in
humidity
%
barometer
mb
20260504003506 67 211 0.0 0.0 0.00 0.01 0.01 41 1016.2
20260504003005 67 211 0.0 0.0 0.00 0.01 0.01 41 1016.2
20260504002506 68 211 0.0 0.9 0.00 0.01 0.01 39 1016.1
20260504002005 68 211 0.9 1.7 0.00 0.01 0.01 37 1016.1
20260504001505 68 211 0.9 1.7 0.00 0.01 0.01 36 1016.0
20260504001006 69 211 0.0 1.7 0.00 0.01 0.01 36 1016.0
20260504000506 69 211 0.0 0.9 0.00 0.01 0.01 36 1016.1
20260504000006 69 211 0.0 0.9 0.00 0.01 0.01 36 1016.1
20260503235005 70 209 0.9 2.6 0.00 0.01 0.01 34 1016.0
20260503234505 70 227 1.7 2.6 0.00 0.01 0.01 34 1015.9
20260503234006 70 221 0.9 2.6 0.00 0.01 0.01 35 1015.9
20260503233505 71 235 0.9 2.6 0.00 0.01 0.01 34 1016.1
20260503232505 71 274 0.0 2.6 0.00 0.01 0.01 36 1016.0
20260503232005 71 248 2.6 5.2 0.00 0.01 0.01 35 1015.9
20260503231505 72 212 4.3 7.8 0.00 0.01 0.01 33 1016.0
20260503231005 72 199 0.9 4.3 0.00 0.01 0.01 34 1016.1
20260503230505 72 308 1.7 2.6 0.00 0.01 0.01 34 1016.1
20260503225505 72 343 1.7 4.3 0.00 0.01 0.01 35 1016.1
20260503224506 72 338 1.7 4.3 0.00 0.01 0.01 36 1016.1
20260503224005 72 307 1.7 4.3 0.00 0.01 0.01 37 1016.2
20260503223506 72 346 2.6 4.3 0.00 0.01 0.01 36 1016.1
20260503223005 72 323 1.7 4.3 0.00 0.01 0.01 37 1016.2
20260503222505 73 311 1.7 2.6 0.00 0.01 0.01 36 1016.2
20260503222005 73 338 1.7 5.2 0.00 0.01 0.01 37 1016.3
20260503221505 73 311 1.7 2.6 0.00 0.01 0.01 36 1016.2
20260503221005 73 329 1.7 5.2 0.00 0.01 0.01 37 1016.2
20260503220505 73 286 1.7 2.6 0.00 0.01 0.01 35 1016.2
20260503220005 72 235 2.6 6.1 0.00 0.01 0.01 35 1016.3
20260503215505 72 330 2.6 8.7 0.00 0.01 0.01 36 1016.2
20260503215005 73 332 4.3 10.4 0.00 0.01 0.01 34 1016.3
20260503214005 72 304 0.9 2.6 0.00 0.01 0.01 36 1016.3
20260503213006 72 351 2.6 5.2 0.00 0.01 0.01 36 1016.4
20260503212505 72 245 0.9 7.0 0.00 0.01 0.01 35 1016.3
20260503212005 72 220 3.5 7.0 0.00 0.01 0.01 36 1016.4
20260503211505 72 346 1.7 5.2 0.00 0.01 0.01 35 1016.4
20260503211005 71 344 3.5 7.8 0.00 0.01 0.01 36 1016.3
20260503210005 71 317 4.3 10.4 0.00 0.01 0.01 38 1016.4
20260503205005 73 332 3.5 7.0 0.00 0.01 0.01 37 1016.4
20260503204504 72 320 2.6 7.0 0.00 0.01 0.01 37 1016.5
20260503203505 72 353 2.6 7.0 0.00 0.01 0.01 37 1016.7
20260503202505 72 271 2.6 7.8 0.00 0.01 0.01 33 1016.8
20260503202005 72 275 2.6 5.2 0.00 0.01 0.01 35 1016.8
20260503201505 72 256 1.7 5.2 0.00 0.01 0.01 36 1016.8
20260503201005 72 213 2.6 5.2 0.00 0.01 0.01 34 1017.0
20260503200005 72 130 0.9 2.6 0.00 0.01 0.01 38 1017.1
20260503195504 71 203 2.6 5.2 0.00 0.01 0.01 38 1017.2
20260503195005 71 227 4.3 7.8 0.00 0.01 0.01 39 1017.2
20260503194505 71 225 2.6 10.4 0.00 0.01 0.01 37 1017.4
20260503194004 71 226 1.7 6.1 0.00 0.01 0.01 36 1017.5
20260503193505 70 313 3.5 7.0 0.00 0.01 0.01 38 1017.6
20260503193005 70 218 5.2 10.4 0.00 0.01 0.01 38 1017.7
20260503192505 70 276 1.7 6.1 0.00 0.01 0.01 38 1017.8
20260503192005 70 309 2.6 8.7 0.00 0.01 0.01 39 1017.9
20260503191005 70 317 2.6 8.7 0.00 0.01 0.01 40 1018.1
20260503190505 70 351 2.6 7.0 0.00 0.01 0.01 41 1018.2
20260503190004 70 286 1.7 7.8 0.00 0.01 0.01 43 1018.3
20260503185005 70 334 2.6 4.3 0.00 0.01 0.01 40 1018.5
20260503184504 70 36 1.7 8.7 0.00 0.01 0.01 39 1018.6
20260503184005 70 332 2.6 8.7 0.00 0.01 0.01 41 1018.6
20260503183504 69 19 1.7 2.6 0.00 0.01 0.01 41 1018.6
20260503183005 69 213 1.7 6.1 0.00 0.01 0.01 41 1018.7
20260503182505 69 326 2.6 7.0 0.00 0.01 0.01 41 1018.9
20260503182006 69 334 4.3 10.4 0.00 0.01 0.01 40 1018.9
20260503181005 68 278 2.6 5.2 0.00 0.01 0.01 39 1019.0
20260503180505 68 328 4.3 7.8 0.00 0.01 0.01 40 1019.0
20260503180005 69 351 2.6 8.7 0.00 0.01 0.01 40 1019.1
20260503175504 68 161 1.7 4.3 0.00 0.01 0.01 39 1019.1
20260503174505 68 207 2.6 5.2 0.00 0.01 0.01 37 1019.2
20260503173505 68 259 2.6 7.0 0.00 0.01 0.01 38 1019.2
20260503173004 68 199 2.6 7.8 0.00 0.01 0.01 40 1019.2
20260503171504 67 238 1.7 7.8 0.00 0.01 0.01 43 1019.3
20260503171005 67 124 2.6 7.0 0.00 0.01 0.01 41 1019.3
20260503151004 62 62 1.7 2.6 0.00 0.02 0.01 57 1020.2
20260503150504 61 346 1.7 2.6 0.00 0.02 0.01 62 1020.2
20260503131004 52 308 2.6 6.1 0.00 0.08 0.01 96 1019.8
20260503130504 52 310 2.6 2.6 0.00 0.08 0.01 96 1019.6
20260503110507 48 330 0.0 0.9 0.00 0.20 0.01 95 1018.6
20260503090507 50 209 0.0 1.7 0.00 0.26 0.01 95 1017.3
20260503081507 50 221 0.0 0.0 0.01 0.34 0.01 95 1017.0
20260503081006 49 221 0.0 0.0 0.01 0.35 0.01 95 1017.0
20260503080506 49 221 0.0 0.0 0.01 0.37 0.01 95 1016.9
20260503072507 49 221 0.0 0.0 0.00 0.44 0.00 94 1016.7
20260503071507 50 221 0.0 0.0 0.00 0.45 0.00 94 1016.7
20260503071006 50 221 0.0 0.0 0.00 0.47 0.00 95 1016.6
20260503055006 52 221 0.0 0.0 0.00 0.51 0.00 94 1016.3
20260503054506 52 221 0.0 0.0 0.00 0.51 0.00 94 1016.3
20260503054006 53 221 0.0 0.9 0.00 0.51 0.00 94 1016.3
20260503053007 53 216 0.9 2.6 0.00 0.51 0.00 94 1016.3
20260503052007 53 275 0.0 0.9 0.00 0.51 0.00 94 1016.3
20260503051006 53 355 0.0 0.9 0.00 0.51 0.00 94 1016.3
20260503050506 53 5 0.0 0.0 0.00 0.51 0.00 93 1016.3
20260503050006 53 5 0.0 0.0 0.00 0.51 0.00 93 1016.3
20260503045507 53 5 0.0 0.0 0.00 0.51 0.00 93 1016.3
20260503045006 53 5 0.0 0.9 0.00 0.51 0.00 93 1016.3
20260503044506 53 5 0.0 0.0 0.00 0.51 0.00 93 1016.3
20260503044007 53 5 0.0 0.0 0.00 0.51 0.00 93 1016.3
20260503043006 54 5 0.0 0.0 0.00 0.51 0.00 92 1016.1
20260503042506 54 5 0.0 0.0 0.00 0.51 0.00 93 1016.0
20260503041006 54 5 0.0 0.9 0.00 0.51 0.00 92 1016.0
20260503040507 55 355 0.0 0.0 0.00 0.51 0.00 92 1016.0
20260503035006 55 355 0.0 0.0 0.00 0.51 0.51 92 1015.9
20260503034506 55 355 0.0 0.0 0.00 0.51 0.51 92 1015.8
20260503034006 55 355 0.0 0.9 0.00 0.51 0.51 92 1015.9
20260503033507 55 355 0.0 0.0 0.00 0.51 0.51 92 1015.9
20260503033006 55 355 0.0 0.0 0.00 0.51 0.51 92 1015.9
20260503032506 55 355 0.0 0.0 0.00 0.51 0.51 92 1016.0
20260503032006 55 355 0.0 0.9 0.00 0.51 0.51 93 1016.1
20260503031506 55 0 0.0 0.9 0.00 0.51 0.51 92 1016.1
20260503031006 55 0 0.0 1.7 0.00 0.51 0.51 92 1016.1
20260503030506 55 355 0.0 2.6 0.00 0.51 0.51 92 1016.0
20260503030006 55 338 0.9 2.6 0.00 0.51 0.51 92 1016.0
20260503025506 55 355 0.9 2.6 0.00 0.51 0.51 92 1016.0
20260503025006 55 296 0.0 0.0 0.00 0.51 0.51 92 1015.6
20260503024506 55 296 0.0 0.0 0.00 0.51 0.51 92 1015.5
20260503024006 55 296 0.0 0.9 0.00 0.51 0.51 92 1015.5
20260503023506 55 296 0.0 0.0 0.00 0.51 0.51 92 1015.4
20260503023006 55 296 0.0 0.9 0.00 0.51 0.51 92 1015.4
20260503022506 55 296 0.0 0.9 0.00 0.51 0.51 92 1015.3
20260503022006 55 296 0.9 0.9 0.00 0.51 0.51 91 1015.3
20260503021506 55 296 0.0 0.9 0.00 0.51 0.51 91 1015.2
20260503021005 55 296 0.9 1.7 0.00 0.51 0.51 91 1015.0
20260503020006 55 128 0.0 0.9 0.00 0.51 0.51 90 1014.5
20260503015506 55 128 0.0 1.7 0.00 0.51 0.51 90 1014.4
20260503015006 56 132 0.0 1.7 0.00 0.51 0.51 90 1014.3
20260503014505 56 123 0.0 0.9 0.00 0.51 0.51 90 1014.2
20260503014006 56 123 0.9 2.6 0.00 0.51 0.51 90 1014.0
20260503013006 56 298 1.7 2.6 0.00 0.51 0.51 89 1014.0
20260503012506 56 267 0.0 1.7 0.00 0.51 0.51 88 1013.9
20260503012006 56 198 0.0 0.9 0.00 0.51 0.51 88 1013.9
20260503011506 56 198 0.0 0.9 0.00 0.51 0.51 89 1013.7
20260503010505 56 141 0.0 0.9 0.00 0.51 0.51 88 1013.6
20260503010005 56 128 0.0 0.9 0.00 0.51 0.51 88 1013.4
20260503005505 56 129 0.9 2.6 0.00 0.51 0.51 88 1013.1
20260503005006 56 148 0.0 1.7 0.00 0.51 0.51 88 1013.0
20260503004505 56 125 0.9 2.6 0.00 0.51 0.51 87 1012.9
20260503004006 56 123 0.9 1.7 0.00 0.51 0.51 87 1013.0